Nampa, ID

2:40 AM MDT on October 24, 2017 (GMT -0600)
Nampa

Weather History for KMAN - November, 2013

Change the Weather History Date:

Friday, November 1, 2013

  Actual Average (KBOI) Record (KBOI)
Temperature  
Mean Temperature 44 °F -  
Max Temperature 57 °F 55 °F 74 °F (1988)
Min Temperature 32 °F 34 °F 15 °F (1995)
Degree Days  
Heating Degree Days 20    
Moisture  
Dew Point 40 °F    
Average Humidity 90    
Maximum Humidity 100    
Minimum Humidity 55    
Precipitation  
Precipitation 0.00 in - - ()
Sea Level Pressure  
Sea Level Pressure 30.25 in    
Wind  
Wind Speed 2 mph (SW)    
Max Wind Speed 6 mph    
Max Gust Speed -    
Visibility 8 miles    
Events      
Averages and records for this station are not official NWS values.
T = Trace of Precipitation, MM = Missing Value Source: NWS Daily Summary

Daily Weather History Graph

Daily Weather History Graph

Search for Another Location

Airport or City:

Trip Planner

Search our weather history database for the weather conditions in past years. The results will help you decide how hot, cold, wet, or windy it might be!

Date:

Astronomy

Nov. 01, 2013 Rise Set
Actual Time 8:22 AM MDT 6:36 PM MDT
Civil Twilight 7:52 AM MDT 7:06 PM MDT
Nautical Twilight 7:18 AM MDT 7:40 PM MDT
Astronomical Twilight 6:45 AM MDT 8:13 PM MDT
Moon 6:16 AM MDT (11/1) 5:34 PM MDT (11/1)
Length of Visible Light 11h 14m
Length of Day
10h 14m
Waning Crescent, 4% of the Moon is Illuminated
Nov 1
Waning Crescent
Nov 3
New
Nov 9
First Quarter
Nov 17
Full
Nov 25
Last Quarter

Hourly Weather History & Observations

Time (MDT) Temp. Windchill Dew Point Humidity Pressure Visibility Wind Dir Wind Speed Gust Speed Precip Events Conditions
12:15 AM 41.0 °F 39.0 °F 41.0 °F 100% 30.24 in 10.0 mi WNW 3.5 mph - N/A   Overcast
12:35 AM 41.0 °F 38.0 °F 41.0 °F 100% 30.24 in 10.0 mi West 4.6 mph - N/A   Overcast
12:55 AM 41.0 °F 39.0 °F 41.0 °F 100% 30.25 in 10.0 mi WNW 3.5 mph - N/A   Overcast
1:15 AM 41.0 °F 38.0 °F 41.0 °F 100% 30.25 in 10.0 mi NW 4.6 mph - N/A   Overcast
1:35 AM 41.0 °F 38.0 °F 41.0 °F 100% 30.25 in 10.0 mi NW 4.6 mph - N/A   Overcast
1:55 AM 42.8 °F 39.3 °F 42.8 °F 100% 30.26 in 10.0 mi WNW 5.8 mph - N/A   Overcast
2:15 AM 41.0 °F 39.0 °F 41.0 °F 100% 30.27 in 10.0 mi West 3.5 mph - N/A   Overcast
2:35 AM 41.0 °F 39.0 °F 41.0 °F 100% 30.26 in 10.0 mi WNW 3.5 mph - N/A   Overcast
2:55 AM 41.0 °F - 41.0 °F 100% 30.27 in 10.0 mi Calm Calm - N/A   Overcast
3:15 AM 39.2 °F 37.0 °F 39.2 °F 100% 30.27 in 10.0 mi WSW 3.5 mph - N/A   Overcast
3:35 AM 39.2 °F 37.0 °F 39.2 °F 100% 30.28 in 10.0 mi West 3.5 mph - N/A   Mostly Cloudy
3:55 AM 39.2 °F - 39.2 °F 100% 30.27 in 10.0 mi Calm Calm - N/A   Mostly Cloudy
4:15 AM 39.2 °F - 39.2 °F 100% 30.28 in 10.0 mi Calm Calm - N/A   Scattered Clouds
4:35 AM 37.4 °F - 37.4 °F 100% 30.28 in 7.0 mi Calm Calm - N/A   Clear
4:55 AM 35.6 °F - 35.6 °F 100% 30.28 in 3.0 mi Calm Calm - N/A   Clear
5:15 AM 33.8 °F 30.8 °F 33.8 °F 100% 30.28 in 2.5 mi SSE 3.5 mph - N/A   Clear
5:35 AM 32.0 °F 28.7 °F 32.0 °F 100% 30.28 in 0.2 mi SE 3.5 mph - N/A   Unknown
5:55 AM 32.0 °F - 32.0 °F 100% 30.28 in 0.2 mi Calm Calm - N/A   Unknown
6:15 AM 32.0 °F - 32.0 °F 100% 30.29 in 0.2 mi Calm Calm - N/A   Unknown
6:35 AM 32.0 °F - 32.0 °F 100% 30.30 in 0.2 mi Calm Calm - N/A   Unknown
6:55 AM 32.0 °F 28.7 °F 32.0 °F 100% 30.30 in 0.5 mi East 3.5 mph - N/A   Unknown
7:15 AM 32.0 °F - 32.0 °F 100% 30.31 in 2.0 mi Calm Calm - N/A   Unknown
7:35 AM 32.0 °F - 32.0 °F 100% 30.31 in 4.0 mi Calm Calm - N/A   Unknown
7:55 AM 35.6 °F 32.8 °F 35.6 °F 100% 30.30 in 5.0 mi ENE 3.5 mph - N/A   Unknown
8:15 AM 33.8 °F - 33.8 °F 100% 30.31 in 7.0 mi Calm Calm - N/A   Overcast
8:35 AM 35.6 °F 32.8 °F 35.6 °F 100% 30.31 in 4.0 mi ESE 3.5 mph - N/A   Overcast
8:55 AM 35.6 °F - 35.6 °F 100% 30.31 in 5.0 mi Calm Calm - N/A   Overcast
9:15 AM 35.6 °F - 35.6 °F 100% 30.32 in 7.0 mi Calm Calm - N/A   Overcast
9:35 AM 37.4 °F 34.9 °F 37.4 °F 100% 30.32 in 8.0 mi East 3.5 mph - N/A   Overcast
9:55 AM 37.4 °F - 37.4 °F 100% 30.32 in 8.0 mi Calm Calm - N/A   Mostly Cloudy
10:15 AM 39.2 °F 37.0 °F 39.2 °F 100% 30.33 in 8.0 mi SSE 3.5 mph - N/A   Overcast
10:35 AM 41.0 °F - 41.0 °F 100% 30.32 in 10.0 mi Calm Calm - N/A   Scattered Clouds
10:55 AM 41.0 °F - 41.0 °F 100% 30.32 in 10.0 mi Calm Calm - N/A   Scattered Clouds
11:15 AM 42.8 °F 41.1 °F 42.8 °F 100% 30.32 in 10.0 mi WSW 3.5 mph - N/A   Overcast
11:35 AM 44.6 °F 43.1 °F 42.8 °F 93% 30.32 in 10.0 mi West 3.5 mph - N/A   Overcast
11:55 AM 44.6 °F 42.2 °F 41.0 °F 87% 30.33 in 10.0 mi NW 4.6 mph - N/A   Overcast
12:15 PM 44.6 °F 42.2 °F 41.0 °F 87% 30.33 in 10.0 mi NNW 4.6 mph - N/A   Overcast
12:35 PM 46.4 °F 45.2 °F 42.8 °F 87% 30.33 in 10.0 mi WNW 3.5 mph - N/A   Overcast
12:55 PM 48.2 °F - 42.8 °F 82% 30.32 in 10.0 mi Calm Calm - N/A   Mostly Cloudy
1:15 PM 50.0 °F - 42.8 °F 76% 30.31 in 10.0 mi Calm Calm - N/A   Partly Cloudy
1:35 PM 50.0 °F - 42.8 °F 76% 30.30 in 10.0 mi Calm Calm - N/A   Partly Cloudy
1:55 PM 50.0 °F - 42.8 °F 76% 30.29 in 10.0 mi Calm Calm - N/A   Mostly Cloudy
2:15 PM 53.6 °F - 44.6 °F 72% 30.28 in 10.0 mi NNW 3.5 mph - N/A   Mostly Cloudy
3:55 PM 55.4 °F - 41.0 °F 58% 30.24 in 10.0 mi Calm Calm - N/A   Clear
4:15 PM 55.4 °F - 41.0 °F 58% 30.23 in 10.0 mi Calm Calm - N/A   Clear
4:35 PM 57.2 °F - 41.0 °F 55% 30.23 in 10.0 mi East 3.5 mph - N/A   Clear
4:55 PM 57.2 °F - 41.0 °F 55% 30.22 in 10.0 mi Calm Calm - N/A   Clear
5:15 PM 57.2 °F - 41.0 °F 55% 30.21 in 10.0 mi Calm Calm - N/A   Clear
5:35 PM 57.2 °F - 41.0 °F 55% 30.20 in 10.0 mi Calm Calm - N/A   Clear
5:55 PM 57.2 °F - 41.0 °F 55% 30.19 in 10.0 mi Calm Calm - N/A   Clear
6:15 PM 55.4 °F - 41.0 °F 58% 30.19 in 10.0 mi Calm Calm - N/A   Clear
6:35 PM 53.6 °F - 41.0 °F 62% 30.19 in 10.0 mi Calm Calm - N/A   Clear
6:55 PM 51.8 °F - 41.0 °F 67% 30.18 in 10.0 mi Calm Calm - N/A   Clear
7:15 PM 50.0 °F - 42.8 °F 76% 30.18 in 10.0 mi Calm Calm - N/A   Unknown
7:35 PM 48.2 °F - 42.8 °F 82% 30.17 in 10.0 mi Calm Calm - N/A   Unknown
7:55 PM 46.4 °F - 42.8 °F 87% 30.17 in 10.0 mi Calm Calm - N/A   Clear
8:15 PM 44.6 °F - 42.8 °F 93% 30.17 in 10.0 mi Calm Calm - N/A   Clear
8:35 PM 44.6 °F 43.1 °F 42.8 °F 93% 30.17 in 9.0 mi ESE 3.5 mph - N/A   Unknown
8:55 PM 44.6 °F 43.1 °F 42.8 °F 93% 30.16 in 8.0 mi SE 3.5 mph - N/A   Unknown
9:15 PM 41.0 °F - 41.0 °F 100% 30.16 in 10.0 mi Calm Calm - N/A   Unknown
9:35 PM 41.0 °F 39.0 °F 41.0 °F 100% 30.16 in 5.0 mi ESE 3.5 mph - N/A   Clear
9:55 PM 41.0 °F - 41.0 °F 100% 30.16 in 7.0 mi Calm Calm - N/A   Clear
10:15 PM 41.0 °F - 41.0 °F 100% 30.15 in 6.0 mi Calm Calm - N/A   Clear
10:35 PM 39.2 °F - 39.2 °F 100% 30.14 in 4.0 mi Calm Calm - N/A   Clear
10:55 PM 41.0 °F 38.0 °F 41.0 °F 100% 30.14 in 5.0 mi SE 4.6 mph - N/A   Clear
11:15 PM 41.0 °F 37.1 °F 41.0 °F 100% 30.14 in 3.0 mi SE 5.8 mph - N/A   Clear
11:35 PM 42.8 °F 39.3 °F 39.2 °F 87% 30.13 in 10.0 mi SE 5.8 mph - N/A   Clear
11:55 PM 41.0 °F 37.1 °F 39.2 °F 93% 30.12 in 10.0 mi SE 5.8 mph - N/A   Clear